sat.trackr.live / text

‹ back to catalog

YAOGAN-40 03A

NORAD 65544 · 2025-199A

PAYLOAD ACTIVE UNKNOWN

§ Identity

Operator
Country
PRC
Launch date
2025-09-06
Launch site
TAISC
Launch vehicle
Mass (kg)
RCS (m²)

External: N2YO · Heavens-Above · Gunter

§ Orbital elements

Epoch: 2026-05-25T05:04:41.585952Z

Period
100.95 min
Inclination
85.9902°
Eccentricity
0.0014878
Mean motion
14.26473148 rev/d
Perigee alt
792.9 km
Apogee alt
814.2 km
Semi-major
7,181.7 km
B*
1.1300e-4
RAAN
51.7016°
Arg perigee
136.4972°
Mean anomaly
223.7395°
Rev number
3,714

§ Raw data

YAOGAN-40 03A1 65544U 25199A   26145.21159243  .00000292  00000+0  11300-3 0  99952 65544  85.9902  51.7016 0014878 136.4972 223.7395 14.26473148 37145

JSON: /api/v1/satellites/65544 · /tle

For live sub-satellite position, see the globe view (requires WebGL).

§ Visibility from observer

Set your observer location to see the next 7 days of passes ≥ 10°. The values pass through the URL so the page stays shareable.

No JS? Fill the form by hand. The geolocation button needs JavaScript.